Home > Weather > Samford > Past weeks

Flag for Australia Past Weather in Samford, Queensland, Australia — Yesterday and Last 2 Weeks

Now
77 °F

Sunny.


Feels Like: 78 °F
Forecast: 50 / 72 °F
Wind: 20 mph from Southwest

Location: Brisbane Airport M. O

Current Time: May 27, 2016 at 2:53:03 PM

Latest Report: May 27, 2016 at 2:00 PM


Visibility: 10 mi

Pressure: 29.71 "Hg

Humidity: 42%

Dew Point: 52 °F

Location of SamfordLocation

Past Weather in Samford — Graph

°F

Samford Temperature Yesterday

Maximum temperature yesterday: 79 °F (at 1:30 PM)
Minimum temperature yesterday: 46 °F (at 6:00 AM)
Average temperature yesterday: 65 °F

High & Low Weather Summary for the Past Weeks

 TemperatureHumidityPressure
High81 °F (May 19, 11:30 AM)100% (May 14, 9:00 PM)30.27 "Hg (May 14, 9:00 PM)
Low46 °F (May 26, 6:00 AM)16% (May 25, 12:00 PM)29.71 "Hg (May 26, 5:00 PM)
Average67 °F70%30.06 "Hg
* Reported May 12 1:00 PM — May 27 1:30 PM, Samford, Weather by CustomWeather, © 2016

Note: Actual official high and low records may vary slightly from our data, if they occured in-between our weather recording intervals... More about our weather records

Advertising

Samford Weather History for the Previous 24 Hours

Scroll right to see more
 ConditionsComfort  
Time TempWeatherWind HumidityBarometerVisibility
1:30 PM
Fri, May 27
77 °FPassing clouds.24 mph42%29.71 "HgN/A
1:00 PM77 °FPassing clouds.22 mph42%29.71 "HgN/A
12:30 PM77 °FPassing clouds.28 mph39%29.71 "HgN/A
12:00 PM77 °FPassing clouds.22 mph39%29.74 "HgN/A
11:00 AM75 °FPassing clouds.20 mph47%29.77 "HgN/A
10:30 AM72 °FScattered clouds.13 mph57%29.77 "HgN/A
10:00 AM73 °FScattered clouds.18 mph57%29.80 "HgN/A
9:30 AM73 °FScattered clouds.17 mph57%29.80 "HgN/A
9:00 AM73 °FScattered clouds.10 mph61%29.77 "HgN/A
8:00 AM72 °FScattered clouds.15 mph65%29.77 "HgN/A
7:00 AM70 °FBroken clouds.14 mph69%29.74 "HgN/A
6:30 AM70 °FBroken clouds.15 mph69%29.74 "HgN/A
6:00 AM70 °FSunny.13 mph69%29.74 "Hg10 mi
5:30 AM68 °FBroken clouds.12 mph69%29.71 "HgN/A
5:00 AM70 °FPartly cloudy.7 mph64%29.71 "HgN/A
4:00 AM70 °FClear.8 mph69%29.71 "Hg10 mi
3:30 AM68 °FClear.7 mph83%29.71 "Hg10 mi
3:00 AM68 °FClear.7 mph83%29.71 "Hg10 mi
2:30 AM66 °FClear.6 mph83%29.71 "Hg10 mi
2:00 AM68 °FClear.6 mph83%29.71 "Hg10 mi
1:00 AM68 °FClear.2 mph83%29.71 "Hg10 mi
12:30 AM70 °FClear.1 mph78%29.71 "Hg10 mi
12:00 AM72 °FClear.6 mph69%29.74 "Hg10 mi
11:30 PM
Thu, May 26
72 °FPassing clouds.6 mph73%29.77 "HgN/A
11:00 PM72 °FClear.12 mph78%29.74 "Hg10 mi
10:00 PM72 °FClear.17 mph78%29.74 "Hg10 mi
9:00 PM72 °FClear.15 mph78%29.74 "Hg10 mi
8:30 PM72 °FClear.15 mph78%29.74 "Hg10 mi
8:00 PM72 °FClear.16 mph78%29.77 "Hg10 mi
7:30 PM72 °FClear.17 mph83%29.77 "Hg10 mi
7:00 PM73 °FClear.17 mph78%29.77 "Hg10 mi
6:30 PM73 °FClear.17 mph78%29.74 "Hg10 mi
6:00 PM73 °FClear.18 mph78%29.74 "Hg10 mi
5:30 PM73 °FClear.20 mph74%29.74 "Hg10 mi
5:00 PM73 °FClear.20 mph78%29.71 "Hg10 mi
4:30 PM75 °FClear.20 mph69%29.74 "Hg10 mi
4:00 PM75 °FSunny.21 mph69%29.74 "Hg10 mi
3:30 PM75 °FSunny.22 mph69%29.74 "Hg10 mi
3:00 PM77 °FSunny.22 mph61%29.74 "Hg10 mi
2:30 PM77 °FSunny.18 mph57%29.77 "Hg10 mi
2:00 PM77 °FSunny.20 mph54%29.77 "Hg10 mi
Weather by CustomWeather, © 2016

See weather overviewHow to use our weather pages